Location: Navajo
(48.7922°N, 105.0603°W)
Time: 08:25:26
(UTC+00:00)

DUCHIFAT 1 - Pass Details

Date: 30 June 2022
Orbit: 580 x 596 km, 98.0° (Epoch: 07 August)

Event Time Altitude Azimuth Distance (km) Brightness Sun altitude
Rises 08:43:08 0° 26° (NNE) 2,842 ? -14.7°
Reaches altitude 10° 08:45:44 10° 41° (NE) 1,938 ? -14.5°
Maximum altitude 08:49:01 22° 93° (E) 1,320 ? -14.3°
Drops below altitude 10° 08:52:18 10° 145° (SE) 1,930 ? -14.1°
Enters shadow 08:53:01 - 151° (SSE) 2,166 ? -14.0°
